Change the Weather History Date:

Wednesday, October 30, 2013

  Actual Average (KGRR) Record (KGRR)
Temperature  
Mean Temperature 46 °F 46 °F  
Max Temperature 60 °F 55 °F 79 °F (1950)
Min Temperature 31 °F 38 °F 18 °F (1988)
Degree Days  
Heating Degree Days 20 19  
Month to date heating degree days 420  
Since 1 July heating degree days 572  
Cooling Degree Days 0 0  
Month to date cooling degree days 4  
Year to date cooling degree days 696  
Moisture  
Dew Point 42 °F    
Average Humidity 84    
Maximum Humidity 100    
Minimum Humidity 62    
Precipitation  
Precipitation 0.08 in 0.10 in 2.83 in (2009)
Month to date precipitation 3.15  
Year to date precipitation 32.15  
Snow  
Snow 0.00 in 0.10 in 1.30 in (1923)
Month to date snowfall 0.5  
Since 1 July snowfall 0.5  
Since 1 September snowfall 0.5  
Snow Depth -    
Sea Level Pressure  
Sea Level Pressure 30.09 in    
Wind  
Wind Speed 4 mph (ESE)    
Max Wind Speed 13 mph    
Max Gust Speed 16 mph    
Visibility 7 miles    
Events Rain    
T = Trace of Precipitation, MM = Missing Value Source: NWS Daily Summary

Daily Weather History Graph

Daily Weather History Graph

Search for Another Location

Airport or City:

Trip Planner

Search our weather history database for the weather conditions in past years. The results will help you decide how hot, cold, wet, or windy it might be!

Date:

Astronomy

Oct. 30, 2013 Rise Set
Actual Time 8:12 AM EDT 6:34 PM EDT
Civil Twilight 7:43 AM EDT 7:04 PM EDT
Nautical Twilight 7:09 AM EDT 7:37 PM EDT
Astronomical Twilight 6:36 AM EDT 8:10 PM EDT
Moon 3:54 AM EDT (10/30) 4:24 PM EDT (10/30)
Length of Visible Light 11h 21m
Length of Day
10h 22m
Waning Crescent, 17% of the Moon is Illuminated
Oct 30
Waning Crescent
Nov 3
New
Nov 10
First Quarter
Nov 17
Full
Nov 25
Last Quarter

Hourly Weather History & Observations

Time (EDT) Temp. Windchill Dew Point Humidity Pressure Visibility Wind Dir Wind Speed Gust Speed Precip Events Conditions
12:14 AM 34.7 °F 30.6 °F 32.9 °F 93% 30.21 in 10.0 mi ESE 4.6 mph - N/A   Clear
12:34 AM 35.1 °F 32.2 °F 33.3 °F 93% 30.20 in 10.0 mi ESE 3.5 mph - N/A   Clear
12:54 AM 34.5 °F - 32.5 °F 92% 30.20 in 10.0 mi Calm Calm - N/A   Clear
1:14 AM 33.1 °F 28.7 °F 32.2 °F 96% 30.19 in 7.0 mi ESE 4.6 mph - N/A   Mostly Cloudy
1:34 AM 32.0 °F 28.7 °F 31.5 °F 98% 30.19 in 7.0 mi NE 3.5 mph - N/A   Mostly Cloudy
1:54 AM 33.1 °F 30.0 °F 32.5 °F 98% 30.19 in 7.0 mi East 3.5 mph - N/A   Scattered Clouds
2:14 AM 32.4 °F 27.9 °F 32.0 °F 99% 30.18 in 7.0 mi East 4.6 mph - N/A   Clear
2:34 AM 32.2 °F 28.9 °F 31.8 °F 99% 30.18 in 7.0 mi East 3.5 mph - N/A   Clear
2:54 AM 32.2 °F 28.9 °F 31.8 °F 99% 30.17 in 5.0 mi ENE 3.5 mph - N/A   Clear
3:14 AM 32.0 °F 28.7 °F 31.8 °F 99% 30.17 in 4.0 mi East 3.5 mph - N/A   Scattered Clouds
3:34 AM 32.5 °F 29.3 °F 32.0 °F 98% 30.16 in 7.0 mi East 3.5 mph - N/A   Clear
3:54 AM 33.6 °F 29.4 °F 33.1 °F 98% 30.16 in 7.0 mi East 4.6 mph - N/A   Clear
4:14 AM 32.2 °F 28.9 °F 32.0 °F 99% 30.16 in 5.0 mi East 3.5 mph - N/A   Clear
4:34 AM 33.1 °F 28.7 °F 32.5 °F 98% 30.15 in 7.0 mi East 4.6 mph - N/A   Clear
4:54 AM 32.5 °F 29.3 °F 32.2 °F 99% 30.15 in 5.0 mi East 3.5 mph - N/A   Clear
5:14 AM 32.2 °F 28.9 °F 32.0 °F 99% 30.14 in 4.0 mi East 3.5 mph - N/A   Clear
5:34 AM 32.0 °F - 32.0 °F 100% 30.15 in 5.0 mi Calm Calm - N/A   Clear
5:54 AM 32.0 °F - 31.8 °F 99% 30.15 in 5.0 mi Calm Calm - N/A   Clear
6:14 AM 31.3 °F - 30.9 °F 99% 30.15 in 4.0 mi Calm Calm - N/A   Clear
6:34 AM 31.1 °F 27.7 °F 30.9 °F 99% 30.15 in 4.0 mi ENE 3.5 mph - N/A   Scattered Clouds
6:54 AM 32.0 °F 28.7 °F 31.8 °F 99% 30.15 in 4.0 mi East 3.5 mph - N/A   Scattered Clouds
7:14 AM 32.0 °F 28.7 °F 32.0 °F 100% 30.15 in 5.0 mi East 3.5 mph - N/A   Mostly Cloudy
7:34 AM 32.5 °F 28.1 °F 32.4 °F 99% 30.15 in 7.0 mi East 4.6 mph - N/A   Overcast
7:54 AM 34.5 °F 31.6 °F 34.2 °F 99% 30.15 in 7.0 mi SE 3.5 mph - N/A   Overcast
8:14 AM 36.7 °F 34.1 °F 36.3 °F 99% 30.15 in 7.0 mi SE 3.5 mph - N/A   Overcast
8:34 AM 38.3 °F 35.9 °F 37.8 °F 98% 30.16 in 5.0 mi SSE 3.5 mph - N/A   Overcast
8:54 AM 38.3 °F - 37.6 °F 97% 30.16 in 7.0 mi Calm Calm - N/A   Overcast
9:14 AM 39.9 °F 37.8 °F 38.8 °F 96% 30.16 in 5.0 mi SE 3.5 mph - N/A   Overcast
9:34 AM 40.5 °F 37.3 °F 39.2 °F 95% 30.17 in 5.0 mi South 4.6 mph - N/A   Overcast
9:54 AM 41.5 °F - 39.9 °F 94% 30.16 in 5.0 mi Calm Calm - N/A   Overcast
10:14 AM 42.8 °F 41.1 °F 40.5 °F 91% 30.16 in 5.0 mi SSE 3.5 mph - N/A   Overcast
10:34 AM 43.7 °F - 41.0 °F 90% 30.16 in 5.0 mi Calm Calm - N/A   Overcast
10:54 AM 45.0 °F - 41.7 °F 88% 30.16 in 7.0 mi Calm Calm - N/A   Overcast
11:14 AM 46.6 °F - 42.8 °F 87% 30.15 in 7.0 mi Calm Calm - N/A   Overcast
11:34 AM 48.6 °F - 43.7 °F 83% 30.15 in 7.0 mi Calm Calm - N/A   Overcast
11:54 AM 50.9 °F - 44.4 °F 78% 30.15 in 7.0 mi Calm Calm - N/A   Overcast
12:14 PM 51.4 °F - 45.0 °F 79% 30.15 in 7.0 mi Calm Calm - N/A   Overcast
12:34 PM 52.5 °F - 46.6 °F 80% 30.15 in 5.0 mi Calm Calm - N/A   Haze
12:54 PM 52.9 °F - 47.3 °F 81% 30.13 in 5.0 mi East 4.6 mph - N/A   Haze
1:14 PM 53.6 °F - 48.0 °F 81% 30.11 in 5.0 mi East 5.8 mph - N/A   Haze
1:34 PM 54.9 °F - 47.8 °F 77% 30.10 in 5.0 mi ENE 4.6 mph - N/A   Haze
1:54 PM 56.5 °F - 49.1 °F 76% 30.09 in 5.0 mi SE 6.9 mph - N/A   Haze
2:14 PM 56.8 °F - 47.8 °F 72% 30.07 in 7.0 mi East 4.6 mph - N/A   Clear
2:34 PM 59.2 °F - 48.4 °F 67% 30.07 in 7.0 mi East 4.6 mph - N/A   Clear
2:54 PM 59.7 °F - 48.6 °F 67% 30.07 in 7.0 mi East 4.6 mph - N/A   Clear
3:12 PM 60.1 °F - 48.6 °F 66% 30.04 in 7.0 mi East 5.8 mph - N/A   Clear
3:34 PM 59.4 °F - 48.2 °F 67% 30.05 in 7.0 mi ENE 5.8 mph - N/A   Clear
3:54 PM 60.8 °F - 48.7 °F 64% 30.04 in 7.0 mi ENE 5.8 mph - N/A   Clear
4:14 PM 60.1 °F - 48.6 °F 66% 30.04 in 7.0 mi ENE 5.8 mph - N/A   Clear
4:34 PM 60.3 °F - 48.6 °F 65% 30.04 in 7.0 mi East 4.6 mph - N/A   Clear
4:54 PM 59.9 °F - 48.7 °F 67% 30.03 in 7.0 mi ENE 4.6 mph - N/A   Scattered Clouds
5:14 PM 59.4 °F - 48.9 °F 68% 30.02 in 7.0 mi East 3.5 mph - N/A   Overcast
5:34 PM 59.4 °F - 48.6 °F 67% 30.01 in 7.0 mi Calm Calm - N/A   Mostly Cloudy
5:54 PM 59.0 °F - 47.7 °F 66% 30.00 in 7.0 mi SE 5.8 mph - N/A   Scattered Clouds
6:14 PM 57.9 °F - 46.8 °F 66% 30.00 in 10.0 mi SSE 5.8 mph - N/A   Mostly Cloudy
6:34 PM 59.0 °F - 46.4 °F 63% 30.00 in 10.0 mi South 5.8 mph - N/A   Overcast
6:54 PM 57.4 °F - 45.5 °F 65% 29.99 in 10.0 mi SSE 5.8 mph - N/A   Overcast
7:14 PM 57.4 °F - 45.1 °F 64% 30.00 in 10.0 mi SSE 5.8 mph - N/A   Overcast
7:34 PM 57.9 °F - 44.8 °F 62% 29.99 in 10.0 mi SE 5.8 mph - N/A   Overcast
7:54 PM 57.4 °F - 45.9 °F 65% 30.00 in 10.0 mi SSE 4.6 mph - N/A   Overcast
8:14 PM 57.4 °F - 46.6 °F 67% 29.99 in 10.0 mi SSE 5.8 mph - N/A   Overcast
8:34 PM 57.9 °F - 46.8 °F 66% 29.99 in 10.0 mi SSE 6.9 mph - N/A   Overcast
8:54 PM 58.1 °F - 48.2 °F 70% 29.98 in 10.0 mi South 8.1 mph - N/A   Overcast
9:14 PM 58.1 °F - 49.1 °F 72% 29.96 in 10.0 mi SSE 8.1 mph - N/A   Overcast
9:34 PM 58.1 °F - 49.8 °F 74% 29.95 in 10.0 mi South 11.5 mph - N/A   Overcast
9:54 PM 58.1 °F - 50.9 °F 77% 29.94 in 10.0 mi South 10.4 mph - N/A   Drizzle
10:14 PM 57.2 °F - 51.6 °F 82% 29.92 in 10.0 mi South 11.5 mph - N/A Rain Light Rain
10:34 PM 57.2 °F - 52.5 °F 84% 29.92 in 10.0 mi South 12.7 mph - N/A Rain Light Rain
10:54 PM 56.7 °F - 53.6 °F 89% 29.91 in 10.0 mi South 10.4 mph - 0.01 in Rain Light Rain
11:14 PM 56.7 °F - 54.5 °F 92% 29.92 in 7.0 mi South 11.5 mph - 0.01 in Rain Light Rain
11:34 PM 56.5 °F - 54.7 °F 94% 29.91 in 5.0 mi South 10.4 mph 16.1 mph 0.04 in Rain Rain
11:54 PM 56.3 °F - 54.9 °F 95% 29.90 in 5.0 mi South 9.2 mph - 0.07 in Rain Rain